Regional Weather Roundup
Issued by NWS Mobile, AL

Current Version | Previous Version | Text Only | Print | Product List | Glossary On
Versions: 1 2 3 4 5 6 7 8 9 10 11 12 13 14 15 16 17 18 19 20 21 22 23 24 25 26 27 28 29 30 31 32 33 34 35 36 37 38 39 40 41 42 43 44 45 46 47 48 49 50
000
ASUS44 KMOB 191810
RWRMOB
REGIONAL WEATHER ROUNDUP
NATIONAL WEATHER SERVICE MOBILE AL
100 PM CDT FRI SEP 19 2014

NOTE: "FAIR" INDICATES FEW OR NO CLOUDS BELOW 12,000 FEET WITH NO
      SIGNIFICANT WEATHER AND/OR OBSTRUCTIONS TO VISIBILITY.

  * THESE STATIONS ARE PART OF THE UNIVERSITY OF SOUTH ALABAMA
    MESONET AND ARE NOT UNDER NWS OR FAA QUALITY CONTROL.

ALZ061>064-191900-
COASTAL ALABAMA

CITY           SKY/WX    TMP DP  RH WIND       PRES   REMARKS
MOBILE REG APT PTSUNNY   83  69  62 CALM      29.99F
6HR MIN TEMP:  71; 6HR MAX TEMP:  84; 6HR PCP: TRACE;

BROOKLEY FIELD MOSUNNY   84  70  62 VRB3      29.99F
6HR MIN TEMP:  73; 6HR MAX TEMP:  85; 6HR PCP: TRACE;

USA CAMPUS*      N/A     84  72  65 CALM      29.96F
DOG RIVER*     NOT AVBL


CITY           SKY/WX    TMP DP  RH WIND       PRES   REMARKS
MOUNT VERNON*    N/A     84  70  61 S7        29.97F
SARALAND*      NOT AVBL
BAY MINETTE*   NOT AVBL
LOXLEY*          N/A    N/A N/A N/A SE9       29.99F
ROBERTSDALE*     N/A     77  66  69 SE2       29.99F
FAIRHOPE*        N/A     84  70  61 CALM      29.97F
ELBERTA*         N/A     84  72  65 E8        29.97F
FOLEY*         NOT AVBL
GRAND BAY*       N/A     86  63  45 E6        29.97F
DAUPHIN ISLND* NOT AVBL
BON SCOUR NWR* NOT AVBL
GULF SHORES    PTSUNNY   85  69  57 E9        29.97F

$$

ALZ051>060-191900-
INTERIOR SOUTHWEST AND SOUTH CENTRAL ALABAMA

CITY           SKY/WX    TMP DP  RH WIND       PRES   REMARKS
GREENVILLE     MOSUNNY   89  64  43 VRB6      29.99
6HR MIN TEMP:  66; 6HR MAX TEMP:  89;

EVERGREEN      MOSUNNY   89  62  40 NE10G16   29.99F
6HR MIN TEMP:  68; 6HR MAX TEMP:  90;

CASTLEBERRY*   NOT AVBL
ATMORE*          N/A     84  70  61 S8        30.00F
DIXIE*         NOT AVBL
ANDALUSIA/OPP  SUNNY     91  65  41 E8        29.99F
6HR MIN TEMP:  73; 6HR MAX TEMP:  92;

ANDALUSIA*     NOT AVBL
FLORALA APT    MOSUNNY   89  63  41 SE8       30.00F
6HR MIN TEMP:  71; 6HR MAX TEMP:  89;

FLORALA*       NOT AVBL

$$

FLZ001>006-191900-
WESTERN FLORIDA PANHANDLE

CITY           SKY/WX    TMP DP  RH WIND       PRES   REMARKS
PENSACOLA      MOSUNNY   82  71  69 NE8       29.98F
6HR MIN TEMP:  71; 6HR MAX TEMP:  82; 6HR PCP:  0.16;

NAS PENSACOLA  PTSUNNY   86  71  60 NE9       29.97F
6HR MIN TEMP:  73; 6HR MAX TEMP:  86; 6HR PCP:  0.04;

MILTON         PTSUNNY   83  67  58 S7        29.99S
6HR MIN TEMP:  72; 6HR MAX TEMP:  84;

WHTNG S FIELD  PTSUNNY   83  68  60 CALM      29.99F
6HR MIN TEMP:  74; 6HR MAX TEMP:  84;



CITY           SKY/WX    TMP DP  RH WIND       PRES   REMARKS
WALNUT HILL*   NOT AVBL
JAY*           NOT AVBL
DUKE FIELD     PTSUNNY   87  74  66 VRB6      29.97F
CRESTVIEW      PTSUNNY   84  67  56 E6        30.00F
6HR MIN TEMP:  70; 6HR MAX TEMP:  86;

VALPARAISO     PTSUNNY   82  72  70 SE6       29.98F
6HR MIN TEMP:  74; 6HR MAX TEMP:  83;

DESTIN         PTSUNNY   82  73  74 S9        29.97F
6HR MIN TEMP:  72; 6HR MAX TEMP:  83; 6HR PCP: TRACE;


$$

MSZ076-079-191900-
INTERIOR SOUTHEAST MISSISSIPPI

CITY           SKY/WX    TMP DP  RH WIND       PRES   REMARKS
LEAKESVILLE*     N/A     84  68  58 E5        29.99F
AGRICOLA*      NOT AVBL

$$

MARINE OBSERVATIONS

STATION/POSITION TIME  TEMP    WIND        PRES    WAVE
                       AIR SEA DIR/SP/G            HT/PER
                 (UTC) (F)     (DEG/KT/KT) (MB)    (FT/S)
PASCAGOULA       1800   82     110/  8/ 10 1014.9F
PETIT BOIS ISLND 1800   83      70/ 11/ 14 1015.3S
GRAND BAY        1700   80      90/  8     1016.0F
KATRINA CUT      1700   82      70/ 10     1015.9S
CEDAR POINT      1700   79      60/  7     1015.6S
E DAUPHIN ISLAND 1659   80      50/  9/ 10 1015.2F
MIDDLE BAY LIGHT 1700   83      30/  1     1014.9S
USCG MOBILE BAY  1800      86              1014.4F
STATE DOCKS      1800   83 86              1015.2F
MEAHER PARK      1700   80     230/  3     1014.9F
WEEKS BAY        1700   83                   N/A
12 S ORANGE BCH  1800   80 85   50/ 10/ 14 1014.9F   1/ 3
PENSACOLA BAY    1800   84 87   90/  3/  6 1015.2F
64 S DAUPHIN ISL 1748   79 84   90/ 25/ 29 1014.4F   4/ 5
67 S FORT MORGAN 1700   78     VRB 19      1013.9F

$$

SELECTED LOCATIONS ACROSS THE REGION

CITY           SKY/WX    TMP DP  RH WIND       PRES   REMARKS
NEW ORLEANS    PTSUNNY   87  67  51 E10       29.96F
GULFPORT       MOSUNNY   85  70  60 E8        29.97S
PASCAGOULA AP  MOSUNNY   86  69  56 NE6       29.98F
PASCAGOULA*      N/A     82  68  61 E6        29.97F
HATTIESBURG    SUNNY     86  67  52 E6        29.99F
LAUREL         MOSUNNY   86  66  51 NE3       30.01S
MERIDIAN       SUNNY     86  63  45 CALM      30.00F
JACKSON        MOSUNNY   87  68  52 VRB7      30.00F
MONTGOMERY     SUNNY     90  64  42 E9        30.00F
TROY           SUNNY     89  62  40 E10       30.00F
KINSTON*       NOT AVBL
GENEVA*          N/A     88  57  35 SE6       29.99F
ASHFORD*       NOT AVBL
DOTHAN         SUNNY     87  63  44 E10       30.03F
PANAMA CITY    CLOUDY    82  71  69 CALM      29.97F

$$



USA.gov is the U.S. government's official web portal to all federal, state and local government web resources and services.